sat.trackr.live / text

‹ back to catalog

BULGARIASAT-1

NORAD 42801 · 2017-038A

PAYLOAD ACTIVE UNKNOWN

§ Identity

Operator
Country
BUL
Launch date
2017-06-23
Launch site
AFETR
Launch vehicle
Mass (kg)
RCS (m²)

Purposes: comms

External: N2YO · Heavens-Above · Gunter

§ Orbital elements

Epoch: 2026-09-12T22:28:04.171296Z

Period
1,436.20 min
Inclination
0.0105°
Eccentricity
0.0003220
Mean motion
1.00264409 rev/d
Perigee alt
35,775.1 km
Apogee alt
35,802.2 km
Semi-major
42,166.8 km
B*
0.0000e+0
RAAN
209.8471°
Arg perigee
342.2370°
Mean anomaly
138.7503°
Rev number
3,372

§ Raw data

BULGARIASAT-11 42801U 17038A   26255.93615939 -.00000003  00000+0  00000+0 0  99912 42801   0.0105 209.8471 0003220 342.2370 138.7503  1.00264409 33720

JSON: /api/v1/satellites/42801 · /tle

For live sub-satellite position, see the globe view (requires WebGL).

§ Visibility from observer

Set your observer location to see the next 7 days of passes ≥ 10°. The values pass through the URL so the page stays shareable.

No JS? Fill the form by hand. The geolocation button needs JavaScript.